{"data":{"norad_id":48072,"intl_designator":"2021-025AG","name":"ONEWEB-0174","alt_names":[],"object_type":"PAYLOAD","status":"ACTIVE","operator":null,"country":"UK","launch_date":"2021-03-25","launch_site_code":"VOSTO","launch_vehicle":null,"mission":null,"orbit_class":"UNKNOWN","rcs_meters":null,"size_class":null,"mass_kg":null,"dimensions":null,"purposes":["comms"],"wikipedia_slug":null,"has_3d_model":false,"image_url":null,"decayed_at":null,"tle_current":{"epoch":"2026-09-18T03:28:08.109120Z","epoch_age_seconds":221732,"freshness":"STALE","line1":"1 48072U 21025AG  26261.14453830 -.00000295  00000+0 -84404-3 0  9996","line2":"2 48072  87.8926 301.7294 0001867  99.2414 260.8926 13.13468739266035","mean_motion":13.13468739,"eccentricity":0.0001867,"inclination_deg":87.8926,"raan_deg":301.7294,"arg_perigee_deg":99.2414,"mean_anomaly_deg":260.8926,"bstar":-0.00084404,"rev_number":26603,"period_min":109.63336676717,"perigee_km":1208.3535941419,"apogee_km":1211.1869187114,"semimajor_km":7587.9072564267,"source":"CELESTRAK","updated_at":"2026-09-20T09:00:44.590615Z"}}}